| time (UTC) | temp F | wind direction | speed MPH | gust MPH | rain 1hr in | rain 24hr in | rain mn in | humidity % | barometer mb |
| 20260507223405 | 78 | 314 | 0.0 | 0.0 | 0.00 | 0.00 | 0.00 | 65 | 1008.7 |
| 20260507222905 | 78 | 268 | 0.0 | 0.0 | 0.00 | 0.00 | 0.00 | 66 | 1008.8 |
| 20260507222409 | 79 | 114 | 0.0 | 0.0 | 0.00 | 0.00 | 0.00 | 65 | 1008.9 |
| 20260507221904 | 79 | 0 | 0.0 | 0.0 | 0.00 | 0.00 | 0.00 | 64 | 1009.0 |
| 20260507221632 | 79 | 83 | 0.0 | 0.0 | 0.00 | 0.00 | 0.00 | 65 | 1009.1 |
| 20260507221515 | 79 | 83 | 0.0 | 0.0 | 0.00 | 0.00 | 0.00 | 65 | 1009.1 |
| 20260507220906 | 79 | 83 | 0.0 | 0.0 | 0.00 | 0.00 | 0.00 | 65 | 1009.1 |
| 20260507220405 | 79 | 11 | 0.0 | 0.0 | 0.00 | 0.00 | 0.00 | 64 | 1009.1 |
| 20260507215903 | 80 | 358 | 0.0 | 0.0 | 0.00 | 0.00 | 0.00 | 64 | 1009.1 |
| 20260507215405 | 80 | 3 | 0.0 | 0.0 | 0.00 | 0.00 | 0.00 | 66 | 1009.1 |
| 20260507214905 | 80 | 127 | 0.0 | 0.0 | 0.00 | 0.00 | 0.00 | 65 | 1009.1 |
| 20260507214405 | 80 | 313 | 0.0 | 0.0 | 0.00 | 0.00 | 0.00 | 65 | 1009.2 |
| 20260507213903 | 79 | 113 | 0.0 | 0.0 | 0.00 | 0.00 | 0.00 | 66 | 1009.3 |
| 20260507213406 | 79 | 59 | 0.0 | 5.0 | 0.00 | 0.00 | 0.00 | 64 | 1009.3 |
| 20260507212905 | 79 | 73 | 0.0 | 5.0 | 0.00 | 0.00 | 0.00 | 64 | 1009.2 |
| 20260507212406 | 79 | 7 | 0.0 | 0.0 | 0.00 | 0.00 | 0.00 | 64 | 1009.2 |
| 20260507211903 | 79 | 56 | 0.0 | 0.0 | 0.00 | 0.00 | 0.00 | 64 | 1009.3 |
| 20260507211628 | 80 | 183 | 0.0 | 0.0 | 0.00 | 0.00 | 0.00 | 65 | 1009.3 |
| 20260507211514 | 80 | 183 | 0.0 | 0.0 | 0.00 | 0.00 | 0.00 | 65 | 1009.3 |
| 20260507210905 | 79 | 347 | 0.0 | 0.0 | 0.00 | 0.00 | 0.00 | 65 | 1009.3 |
| 20260507210404 | 79 | 85 | 0.0 | 0.0 | 0.00 | 0.00 | 0.00 | 65 | 1009.4 |
| 20260507205902 | 79 | 0 | 0.0 | 0.0 | 0.00 | 0.01 | 0.00 | 65 | 1009.5 |
| 20260507205403 | 79 | 355 | 0.0 | 0.0 | 0.00 | 0.02 | 0.00 | 65 | 1009.5 |
| 20260507204905 | 79 | 87 | 0.0 | 0.0 | 0.00 | 0.02 | 0.00 | 67 | 1009.5 |
| 20260507204403 | 79 | 0 | 0.0 | 0.0 | 0.00 | 0.02 | 0.00 | 67 | 1009.6 |
| 20260507204125 | 79 | 292 | 0.0 | 0.0 | 0.00 | 0.02 | 0.00 | 66 | 1009.6 |
| 20260507204010 | 79 | 292 | 0.0 | 0.0 | 0.00 | 0.02 | 0.00 | 66 | 1009.6 |
| 20260507203404 | 79 | 157 | 0.0 | 0.0 | 0.00 | 0.02 | 0.00 | 67 | 1009.6 |
| 20260507203129 | 78 | 24 | 0.0 | 0.0 | 0.00 | 0.02 | 0.00 | 66 | 1009.7 |
| 20260507203010 | 78 | 24 | 0.0 | 0.0 | 0.00 | 0.02 | 0.00 | 66 | 1009.7 |
| 20260507202405 | 78 | 135 | 0.0 | 0.0 | 0.00 | 0.02 | 0.00 | 67 | 1009.8 |
| 20260507201902 | 78 | 87 | 0.0 | 0.0 | 0.00 | 0.02 | 0.00 | 67 | 1009.8 |
| 20260507201605 | 78 | 161 | 0.0 | 0.0 | 0.00 | 0.02 | 0.00 | 66 | 1010.0 |
| 20260507201457 | 78 | 190 | 0.0 | 0.0 | 0.00 | 0.02 | 0.00 | 68 | 1009.9 |
| 20260507201008 | 78 | 161 | 0.0 | 0.0 | 0.00 | 0.02 | 0.00 | 66 | 1010.0 |
| 20260507200401 | 0 | 0.0 | 0.0 | 0.00 | 0.02 | 0.00 | 1010.0 | ||
| 20260507195901 | 79 | 0 | 0.0 | 0.0 | 0.00 | 0.02 | 0.00 | 66 | 1009.9 |
| 20260507195402 | 78 | 0 | 0.0 | 0.0 | 0.00 | 0.02 | 0.00 | 66 | 1010.0 |
| 20260507194900 | 78 | 78 | 0.0 | 0.0 | 0.00 | 0.02 | 0.00 | 67 | 1010.0 |
| 20260507194621 | 78 | 353 | 0.0 | 0.0 | 0.00 | 0.02 | 0.00 | 67 | 1010.0 |
| 20260507194513 | 78 | 353 | 0.0 | 0.0 | 0.00 | 0.02 | 0.00 | 67 | 1010.0 |
| 20260507193859 | 78 | 90 | 0.0 | 0.0 | 0.00 | 0.02 | 0.00 | 69 | 1010.3 |
| 20260507193402 | 78 | 283 | 0.0 | 0.0 | 0.00 | 0.02 | 0.00 | 67 | 1010.3 |
| 20260507192859 | 78 | 345 | 0.0 | 0.0 | 0.00 | 0.02 | 0.00 | 69 | 1010.4 |
| 20260507192402 | 78 | 259 | 0.0 | 0.0 | 0.00 | 0.02 | 0.00 | 67 | 1010.5 |
| 20260507191901 | 78 | 357 | 0.0 | 0.0 | 0.00 | 0.02 | 0.00 | 68 | 1010.6 |
| 20260507191402 | 77 | 317 | 0.0 | 0.0 | 0.00 | 0.02 | 0.00 | 68 | 1010.7 |
| 20260507190859 | 77 | 16 | 0.0 | 0.0 | 0.00 | 0.02 | 0.00 | 69 | 1010.8 |
| 20260507190403 | 77 | 141 | 0.0 | 0.0 | 0.00 | 0.02 | 0.00 | 69 | 1010.8 |
| 20260507185858 | 77 | 324 | 0.0 | 0.0 | 0.00 | 0.02 | 0.00 | 69 | 1010.9 |
| 20260507185401 | 76 | 0 | 0.0 | 2.0 | 0.00 | 0.02 | 0.00 | 70 | 1011.0 |
| 20260507184859 | 76 | 1 | 0.0 | 2.0 | 0.00 | 0.02 | 0.00 | 69 | 1010.9 |
| 20260507184621 | 76 | 333 | 0.0 | 5.0 | 0.00 | 0.02 | 0.00 | 70 | 1011.0 |
| 20260507184511 | 76 | 333 | 0.0 | 5.0 | 0.00 | 0.02 | 0.00 | 70 | 1011.0 |
| 20260507183859 | 75 | 338 | 0.0 | 5.0 | 0.00 | 0.02 | 0.00 | 71 | 1011.1 |
| 20260507183400 | 75 | 3 | 0.0 | 3.0 | 0.00 | 0.02 | 0.00 | 71 | 1011.1 |
| 20260507182859 | 75 | 85 | 0.0 | 6.0 | 0.00 | 0.02 | 0.00 | 71 | 1011.2 |
| 20260507182400 | 74 | 120 | 1.0 | 6.0 | 0.00 | 0.02 | 0.00 | 71 | 1011.2 |
| 20260507181858 | 74 | 310 | 0.0 | 0.0 | 0.00 | 0.02 | 0.00 | 72 | 1011.3 |
| 20260507181618 | 74 | 151 | 0.0 | 0.0 | 0.00 | 0.02 | 0.00 | 72 | 1011.3 |
| 20260507181507 | 74 | 151 | 0.0 | 0.0 | 0.00 | 0.02 | 0.00 | 72 | 1011.3 |
| 20260507180857 | 74 | 175 | 0.0 | 0.0 | 0.00 | 0.02 | 0.00 | 73 | 1011.3 |
| 20260507180358 | 74 | 0 | 0.0 | 0.0 | 0.00 | 0.02 | 0.00 | 74 | 1011.4 |
| 20260507175858 | 73 | 27 | 0.0 | 0.0 | 0.00 | 0.02 | 0.00 | 73 | 1011.5 |
| 20260507175359 | 73 | 121 | 0.0 | 0.0 | 0.00 | 0.02 | 0.00 | 73 | 1011.7 |
| 20260507174858 | 73 | 161 | 0.0 | 0.0 | 0.00 | 0.02 | 0.00 | 75 | 1011.7 |
| 20260507174400 | 72 | 123 | 0.0 | 0.0 | 0.00 | 0.02 | 0.00 | 74 | 1011.8 |
| 20260507173856 | 72 | 286 | 0.0 | 0.0 | 0.00 | 0.02 | 0.00 | 74 | 1012.0 |
| 20260507173358 | 72 | 103 | 0.0 | 0.0 | 0.00 | 0.02 | 0.00 | 74 | 1012.0 |
| 20260507172857 | 72 | 117 | 0.0 | 0.0 | 0.00 | 0.02 | 0.00 | 75 | 1011.8 |
| 20260507172358 | 72 | 172 | 0.0 | 4.0 | 0.00 | 0.02 | 0.00 | 74 | 1011.8 |
| 20260507171856 | 72 | 76 | 0.0 | 4.0 | 0.00 | 0.02 | 0.00 | 74 | 1012.0 |
| 20260507171400 | 73 | 92 | 2.0 | 4.0 | 0.00 | 0.02 | 0.00 | 73 | 1012.0 |
| 20260507170857 | 72 | 4 | 0.0 | 0.0 | 0.00 | 0.02 | 0.00 | 74 | 1012.1 |
| 20260507170358 | 72 | 254 | 0.0 | 0.0 | 0.00 | 0.02 | 0.00 | 76 | 1011.9 |
| 20260507165857 | 71 | 23 | 0.0 | 0.0 | 0.00 | 0.02 | 0.00 | 75 | 1012.0 |
| 20260507165358 | 71 | 161 | 0.0 | 0.0 | 0.00 | 0.02 | 0.00 | 74 | 1012.0 |
| 20260507164856 | 71 | 336 | 0.0 | 0.0 | 0.00 | 0.02 | 0.00 | 74 | 1012.1 |
| 20260507164400 | 71 | 213 | 0.0 | 0.0 | 0.00 | 0.02 | 0.00 | 74 | 1012.0 |
| 20260507163852 | 72 | 214 | 0.0 | 0.0 | 0.00 | 0.02 | 0.00 | 76 | 1011.9 |
| 20260507163613 | 71 | 314 | 0.0 | 0.0 | 0.00 | 0.02 | 0.00 | 77 | 1011.8 |
| 20260507163459 | 71 | 314 | 0.0 | 0.0 | 0.00 | 0.02 | 0.00 | 77 | 1011.8 |
| 20260507162852 | 70 | 4 | 0.0 | 0.0 | 0.00 | 0.02 | 0.00 | 78 | 1011.7 |
| 20260507162357 | 69 | 0 | 0.0 | 0.0 | 0.00 | 0.02 | 0.00 | 78 | 1011.5 |
| 20260507161856 | 69 | 348 | 0.0 | 5.0 | 0.00 | 0.02 | 0.00 | 78 | 1011.4 |
| 20260507161402 | 69 | 224 | 1.0 | 5.0 | 0.00 | 0.02 | 0.00 | 79 | 1011.3 |
| 20260507161118 | 69 | 226 | 0.0 | 0.0 | 0.00 | 0.02 | 0.00 | 79 | 1011.4 |
| 20260507161004 | 69 | 226 | 0.0 | 0.0 | 0.00 | 0.02 | 0.00 | 79 | 1011.4 |
| 20260507160358 | 68 | 47 | 0.0 | 3.0 | 0.00 | 0.02 | 0.00 | 79 | 1011.6 |
| 20260507155858 | 68 | 102 | 0.0 | 3.0 | 0.00 | 0.02 | 0.00 | 79 | 1011.7 |
| 20260507155849 | 67 | 80 | 0.0 | 6.0 | 0.00 | 0.02 | 0.00 | 80 | 1011.7 |
| 20260507155505 | 67 | 80 | 0.0 | 6.0 | 0.00 | 0.02 | 0.00 | 80 | 1011.7 |
| 20260507155333 | 67 | 121 | 1.0 | 6.0 | 0.00 | 0.02 | 0.00 | 81 | 1011.7 |
| 20260507155003 | 67 | 121 | 1.0 | 6.0 | 0.00 | 0.02 | 0.00 | 81 | 1011.7 |
| 20260507154352 | 67 | 104 | 0.0 | 4.0 | 0.00 | 0.02 | 0.00 | 80 | 1011.8 |
| 20260507153853 | 67 | 7 | 0.0 | 11.0 | 0.00 | 0.02 | 0.00 | 81 | 1011.8 |
| 20260507153356 | 66 | 353 | 0.0 | 11.0 | 0.00 | 0.02 | 0.00 | 82 | 1012.0 |
| 20260507152855 | 66 | 341 | 0.0 | 0.0 | 0.00 | 0.02 | 0.00 | 82 | 1012.0 |
| 20260507152354 | 65 | 113 | 0.0 | 0.0 | 0.00 | 0.02 | 0.00 | 83 | 1011.9 |
| 20260507151853 | 65 | 6 | 0.0 | 2.0 | 0.00 | 0.02 | 0.00 | 83 | 1011.9 |
| 20260507151618 | 65 | 127 | 0.0 | 2.0 | 0.00 | 0.02 | 0.00 | 83 | 1011.9 |
| 20260507151504 | 65 | 127 | 0.0 | 2.0 | 0.00 | 0.02 | 0.00 | 83 | 1011.9 |
| 20260507151337 | 65 | 93 | 0.0 | 2.0 | 0.00 | 0.02 | 0.00 | 83 | 1011.9 |
| 20260507151001 | 65 | 93 | 0.0 | 2.0 | 0.00 | 0.02 | 0.00 | 83 | 1011.9 |
| 20260507150358 | 65 | 345 | 0.0 | 0.0 | 0.00 | 0.02 | 0.00 | 84 | 1011.9 |
| 20260507145850 | 64 | 175 | 0.0 | 0.0 | 0.00 | 0.02 | 0.00 | 84 | 1011.8 |
| 20260507145354 | 64 | 100 | 0.0 | 5.0 | 0.00 | 0.02 | 0.00 | 84 | 1011.8 |
| 20260507144616 | 64 | 92 | 0.0 | 7.0 | 0.00 | 0.02 | 0.00 | 84 | 1011.7 |
| 20260507144504 | 64 | 92 | 0.0 | 7.0 | 0.00 | 0.02 | 0.00 | 84 | 1011.7 |
| 20260507144112 | 64 | 21 | 1.0 | 7.0 | 0.00 | 0.02 | 0.00 | 84 | 1011.7 |
| 20260507144002 | 64 | 21 | 1.0 | 7.0 | 0.00 | 0.02 | 0.00 | 84 | 1011.7 |
| 20260507143356 | 64 | 179 | 1.0 | 5.0 | 0.00 | 0.02 | 0.00 | 84 | 1011.5 |
| 20260507142853 | 64 | 97 | 0.0 | 4.0 | 0.00 | 0.02 | 0.00 | 84 | 1011.4 |
| 20260507142354 | 64 | 71 | 1.0 | 4.0 | 0.00 | 0.02 | 0.00 | 84 | 1011.5 |
| 20260507141854 | 64 | 123 | 0.0 | 1.0 | 0.00 | 0.02 | 0.00 | 85 | 1011.3 |
| 20260507141355 | 64 | 59 | 0.0 | 5.0 | 0.00 | 0.02 | 0.00 | 86 | 1011.5 |
| 20260507141114 | 64 | 353 | 0.0 | 5.0 | 0.00 | 0.02 | 0.00 | 86 | 1011.6 |
| 20260507140959 | 64 | 353 | 0.0 | 5.0 | 0.00 | 0.02 | 0.00 | 86 | 1011.6 |
| 20260507140353 | 64 | 93 | 0.0 | 1.0 | 0.00 | 0.02 | 0.00 | 86 | 1011.7 |
| 20260507135852 | 64 | 109 | 0.0 | 0.0 | 0.00 | 0.02 | 0.00 | 86 | 1011.7 |
| 20260507135355 | 64 | 299 | 0.0 | 1.0 | 0.00 | 0.02 | 0.00 | 87 | 1011.6 |
| 20260507134852 | 64 | 75 | 0.0 | 1.0 | 0.00 | 0.02 | 0.00 | 87 | 1011.8 |
| 20260507134834 | 64 | 89 | 0.0 | 1.0 | 0.00 | 0.02 | 0.00 | 87 | 1011.9 |
| 20260507134500 | 64 | 89 | 0.0 | 1.0 | 0.00 | 0.02 | 0.00 | 87 | 1011.9 |
| 20260507133853 | 64 | 106 | 0.0 | 1.0 | 0.00 | 0.02 | 0.00 | 87 | 1011.9 |
| 20260507133837 | 64 | 116 | 0.0 | 1.0 | 0.00 | 0.02 | 0.00 | 87 | 1011.9 |
| 20260507133503 | 64 | 116 | 0.0 | 1.0 | 0.00 | 0.02 | 0.00 | 87 | 1011.9 |
| 20260507132852 | 64 | 130 | 0.0 | 1.0 | 0.00 | 0.02 | 0.00 | 87 | 1011.8 |
| 20260507132352 | 64 | 302 | 0.0 | 0.0 | 0.00 | 0.02 | 0.00 | 87 | 1011.9 |
| 20260507131852 | 64 | 313 | 0.0 | 0.0 | 0.00 | 0.02 | 0.00 | 87 | 1011.9 |
| 20260507131352 | 64 | 279 | 0.0 | 1.0 | 0.00 | 0.02 | 0.00 | 87 | 1011.8 |
| 20260507130851 | 64 | 14 | 0.0 | 1.0 | 0.00 | 0.02 | 0.00 | 87 | 1011.8 |
| 20260507130352 | 64 | 103 | 0.0 | 0.0 | 0.00 | 0.02 | 0.00 | 87 | 1011.7 |
| 20260507125852 | 64 | 341 | 0.0 | 0.0 | 0.00 | 0.02 | 0.00 | 87 | 1011.8 |
| 20260507125352 | 64 | 1 | 0.0 | 0.0 | 0.00 | 0.02 | 0.00 | 87 | 1011.9 |
| 20260507124851 | 64 | 144 | 0.0 | 0.0 | 0.00 | 0.02 | 0.00 | 87 | 1011.5 |
| 20260507124351 | 64 | 51 | 0.0 | 0.0 | 0.00 | 0.02 | 0.00 | 87 | 1011.5 |
| 20260507123850 | 64 | 3 | 0.0 | 1.0 | 0.00 | 0.02 | 0.00 | 86 | 1011.3 |
| 20260507123352 | 64 | 0 | 0.0 | 1.0 | 0.00 | 0.02 | 0.00 | 86 | 1011.5 |
| 20260507122850 | 64 | 233 | 0.0 | 0.0 | 0.00 | 0.02 | 0.00 | 86 | 1011.1 |
| 20260507122835 | 64 | 231 | 0.0 | 0.0 | 0.00 | 0.02 | 0.00 | 86 | 1011.4 |
| 20260507122501 | 64 | 231 | 0.0 | 0.0 | 0.00 | 0.02 | 0.00 | 86 | 1011.4 |
| 20260507121850 | 64 | 231 | 0.0 | 0.0 | 0.00 | 0.02 | 0.00 | 86 | 1010.8 |
| 20260507121353 | 64 | 141 | 0.0 | 0.0 | 0.00 | 0.02 | 0.00 | 86 | 1010.7 |
| 20260507120850 | 64 | 76 | 0.0 | 0.0 | 0.00 | 0.02 | 0.00 | 86 | 1010.8 |
| 20260507120352 | 64 | 94 | 0.0 | 0.0 | 0.00 | 0.02 | 0.00 | 85 | 1010.4 |
| 20260507120109 | 64 | 90 | 0.0 | 10.0 | 0.00 | 0.02 | 0.00 | 85 | 1010.6 |
| 20260507120000 | 64 | 90 | 0.0 | 10.0 | 0.00 | 0.02 | 0.00 | 85 | 1010.6 |
| 20260507115351 | 65 | 0 | 0.0 | 10.0 | 0.00 | 0.02 | 0.00 | 85 | 1010.6 |
| 20260507114850 | 65 | 180 | 0.0 | 6.0 | 0.00 | 0.02 | 0.00 | 85 | 1010.6 |
| 20260507114621 | 65 | 341 | 0.0 | 6.0 | 0.00 | 0.02 | 0.00 | 85 | 1010.3 |
| 20260507114458 | 65 | 341 | 0.0 | 6.0 | 0.00 | 0.02 | 0.00 | 85 | 1010.3 |
| 20260507114113 | 65 | 38 | 0.0 | 0.0 | 0.00 | 0.02 | 0.00 | 85 | 1010.2 |
| 20260507113957 | 65 | 38 | 0.0 | 0.0 | 0.00 | 0.02 | 0.00 | 85 | 1010.2 |
| 20260507113350 | 65 | 258 | 0.0 | 0.0 | 0.00 | 0.02 | 0.00 | 85 | 1010.1 |
| 20260507112848 | 65 | 92 | 0.0 | 0.0 | 0.00 | 0.02 | 0.00 | 85 | 1010.1 |
| 20260507112351 | 65 | 0 | 0.0 | 0.0 | 0.00 | 0.02 | 0.00 | 86 | 1009.9 |
| 20260507111849 | 65 | 0 | 0.0 | 0.0 | 0.00 | 0.02 | 0.00 | 85 | 1010.0 |
| 20260507111349 | 65 | 3 | 0.0 | 0.0 | 0.00 | 0.02 | 0.00 | 85 | 1010.3 |
| 20260507110849 | 66 | 6 | 0.0 | 0.0 | 0.00 | 0.02 | 0.00 | 86 | 1009.8 |
| 20260507110350 | 66 | 343 | 0.0 | 0.0 | 0.00 | 0.02 | 0.00 | 85 | 1009.5 |
| 20260507105848 | 66 | 354 | 0.0 | 0.0 | 0.00 | 0.02 | 0.00 | 86 | 1009.6 |
| 20260507105616 | 66 | 73 | 0.0 | 0.0 | 0.00 | 0.02 | 0.00 | 86 | 1009.5 |
| 20260507105500 | 66 | 73 | 0.0 | 0.0 | 0.00 | 0.02 | 0.00 | 86 | 1009.5 |
| 20260507104849 | 66 | 350 | 0.0 | 0.0 | 0.00 | 0.02 | 0.00 | 86 | 1009.4 |
| 20260507104350 | 66 | 116 | 0.0 | 0.0 | 0.00 | 0.02 | 0.00 | 86 | 1009.5 |
| 20260507103849 | 66 | 323 | 0.0 | 0.0 | 0.00 | 0.02 | 0.00 | 86 | 1009.6 |
| 20260507103350 | 66 | 202 | 0.0 | 0.0 | 0.00 | 0.02 | 0.00 | 86 | 1009.5 |
| 20260507102848 | 66 | 202 | 0.0 | 0.0 | 0.00 | 0.02 | 0.00 | 86 | 1009.4 |
| 20260507102349 | 66 | 10 | 0.0 | 0.0 | 0.00 | 0.02 | 0.00 | 86 | 1009.3 |
| 20260507101848 | 66 | 1 | 0.0 | 0.0 | 0.00 | 0.02 | 0.00 | 86 | 1009.3 |
| 20260507101348 | 66 | 1 | 0.0 | 0.0 | 0.00 | 0.02 | 0.00 | 86 | 1009.3 |
| 20260507100848 | 66 | 1 | 0.0 | 0.0 | 0.00 | 0.02 | 0.00 | 86 | 1009.3 |
| 20260507100349 | 66 | 14 | 0.0 | 0.0 | 0.00 | 0.02 | 0.00 | 86 | 1009.2 |
| 20260507095847 | 66 | 0 | 0.0 | 0.0 | 0.00 | 0.02 | 0.00 | 86 | 1009.0 |
| 20260507095348 | 66 | 298 | 0.0 | 0.0 | 0.00 | 0.02 | 0.00 | 86 | 1009.1 |
| 20260507094846 | 66 | 200 | 0.0 | 0.0 | 0.00 | 0.02 | 0.00 | 86 | 1009.0 |
| 20260507094347 | 67 | 199 | 0.0 | 0.0 | 0.00 | 0.02 | 0.00 | 86 | 1008.8 |
| 20260507093847 | 67 | 34 | 0.0 | 0.0 | 0.00 | 0.02 | 0.00 | 86 | 1008.7 |
| 20260507093348 | 67 | 292 | 0.0 | 0.0 | 0.00 | 0.02 | 0.00 | 86 | 1008.4 |
| 20260507093107 | 67 | 0 | 0.0 | 0.0 | 0.00 | 0.02 | 0.00 | 86 | 1008.7 |
| 20260507092953 | 67 | 0 | 0.0 | 0.0 | 0.00 | 0.02 | 0.00 | 86 | 1008.7 |
| 20260507092348 | 67 | 0 | 0.0 | 0.0 | 0.00 | 0.02 | 0.00 | 86 | 1008.7 |
| 20260507091836 | 67 | 147 | 0.0 | 0.0 | 0.00 | 0.02 | 0.00 | 86 | 1008.7 |
| 20260507091331 | 67 | 338 | 0.0 | 0.0 | 0.00 | 0.02 | 0.00 | 86 | 1008.8 |
| 20260507090833 | 67 | 310 | 0.0 | 0.0 | 0.00 | 0.02 | 0.00 | 86 | 1009.0 |
| 20260507090332 | 67 | 0 | 0.0 | 0.0 | 0.00 | 0.02 | 0.00 | 86 | 1008.9 |
| 20260507090324 | 67 | 0 | 0.0 | 0.0 | 0.00 | 0.02 | 0.00 | 86 | 1008.7 |
| 20260507085944 | 67 | 0 | 0.0 | 0.0 | 0.00 | 0.02 | 0.00 | 86 | 1008.7 |
| 20260507085319 | 67 | 24 | 0.0 | 0.0 | 0.00 | 0.02 | 0.00 | 86 | 1008.7 |
| 20260507084807 | 67 | 355 | 0.0 | 0.0 | 0.00 | 0.02 | 0.00 | 86 | 1008.9 |
| 20260507084307 | 67 | 0 | 0.0 | 0.0 | 0.00 | 0.02 | 0.00 | 86 | 1008.9 |
| 20260507083803 | 67 | 348 | 0.0 | 0.0 | 0.00 | 0.02 | 0.00 | 85 | 1008.7 |
| 20260507083307 | 67 | 343 | 0.0 | 0.0 | 0.00 | 0.02 | 0.00 | 85 | 1008.6 |
| 20260507082806 | 67 | 79 | 0.0 | 0.0 | 0.00 | 0.02 | 0.00 | 85 | 1008.8 |
| 20260507082305 | 67 | 333 | 0.0 | 0.0 | 0.00 | 0.02 | 0.00 | 85 | 1008.8 |
| 20260507081756 | 67 | 243 | 0.0 | 1.0 | 0.00 | 0.02 | 0.00 | 85 | 1008.7 |
| 20260507081255 | 67 | 73 | 0.0 | 2.0 | 0.00 | 0.02 | 0.00 | 85 | 1008.8 |
| 20260507080745 | 67 | 82 | 0.0 | 2.0 | 0.00 | 0.02 | 0.00 | 85 | 1008.6 |
| 20260507080510 | 68 | 32 | 0.0 | 0.0 | 0.00 | 0.02 | 0.00 | 85 | 1008.9 |
| 20260507080355 | 68 | 32 | 0.0 | 0.0 | 0.00 | 0.02 | 0.00 | 85 | 1008.9 |
| 20260507075744 | 68 | 0 | 0.0 | 0.0 | 0.00 | 0.02 | 0.00 | 85 | 1008.7 |
| 20260507075245 | 68 | 78 | 0.0 | 0.0 | 0.00 | 0.02 | 0.00 | 85 | 1008.8 |
| 20260507075010 | 68 | 21 | 0.0 | 0.0 | 0.00 | 0.02 | 0.00 | 84 | 1009.0 |
| 20260507074851 | 68 | 21 | 0.0 | 0.0 | 0.00 | 0.02 | 0.00 | 84 | 1009.0 |
| 20260507074245 | 68 | 347 | 0.0 | 0.0 | 0.00 | 0.02 | 0.00 | 84 | 1008.9 |
| 20260507073743 | 68 | 333 | 0.0 | 0.0 | 0.00 | 0.02 | 0.00 | 84 | 1008.8 |
| 20260507073245 | 68 | 10 | 0.0 | 0.0 | 0.00 | 0.02 | 0.00 | 84 | 1008.9 |
| 20260507072743 | 68 | 200 | 0.0 | 0.0 | 0.00 | 0.02 | 0.00 | 84 | 1008.8 |
| 20260507072247 | 68 | 254 | 0.0 | 0.0 | 0.00 | 0.02 | 0.00 | 84 | 1008.9 |
| 20260507071744 | 68 | 99 | 0.0 | 0.0 | 0.00 | 0.02 | 0.00 | 83 | 1009.0 |
| 20260507071245 | 68 | 259 | 0.0 | 0.0 | 0.00 | 0.02 | 0.00 | 83 | 1009.2 |
| 20260507071011 | 68 | 320 | 0.0 | 0.0 | 0.00 | 0.02 | 0.00 | 83 | 1009.2 |
| 20260507070850 | 68 | 320 | 0.0 | 0.0 | 0.00 | 0.02 | 0.00 | 83 | 1009.2 |
| 20260507070509 | 68 | 313 | 0.0 | 4.0 | 0.00 | 0.02 | 0.00 | 84 | 1009.2 |
| 20260507070352 | 68 | 313 | 0.0 | 4.0 | 0.00 | 0.02 | 0.00 | 84 | 1009.2 |
| 20260507065743 | 68 | 348 | 0.0 | 4.0 | 0.00 | 0.02 | 0.00 | 83 | 1008.9 |
| 20260507065247 | 68 | 55 | 0.0 | 0.0 | 0.00 | 0.02 | 0.00 | 83 | 1008.9 |
| 20260507065003 | 69 | 252 | 0.0 | 0.0 | 0.00 | 0.02 | 0.00 | 83 | 1009.2 |
| 20260507064849 | 69 | 252 | 0.0 | 0.0 | 0.00 | 0.02 | 0.00 | 83 | 1009.2 |
| 20260507064243 | 69 | 316 | 0.0 | 0.0 | 0.00 | 0.02 | 0.00 | 83 | 1009.2 |
| 20260507063741 | 69 | 334 | 0.0 | 0.0 | 0.00 | 0.02 | 0.00 | 83 | 1008.9 |
| 20260507063244 | 69 | 334 | 0.0 | 0.0 | 0.00 | 0.02 | 0.00 | 83 | 1008.9 |
| 20260507062743 | 69 | 334 | 0.0 | 0.0 | 0.00 | 0.02 | 0.00 | 83 | 1009.2 |
| 20260507062244 | 69 | 355 | 0.0 | 1.0 | 0.00 | 0.02 | 0.00 | 82 | 1009.2 |
| 20260507061741 | 69 | 355 | 0.0 | 1.0 | 0.00 | 0.02 | 0.00 | 82 | 1008.9 |
| 20260507061245 | 69 | 100 | 0.0 | 0.0 | 0.00 | 0.02 | 0.00 | 82 | 1008.8 |
| 20260507060742 | 69 | 107 | 0.0 | 0.0 | 0.00 | 0.02 | 0.00 | 82 | 1008.9 |
| 20260507060244 | 69 | 288 | 0.0 | 3.0 | 0.00 | 0.02 | 0.00 | 82 | 1009.0 |
| 20260507055744 | 69 | 87 | 0.0 | 3.0 | 0.00 | 0.02 | 0.00 | 82 | 1008.9 |
| 20260507055324 | 70 | 51 | 0.0 | 0.0 | 0.00 | 0.02 | 0.00 | 82 | 1009.0 |
| 20260507055243 | 69 | 3 | 0.0 | 0.0 | 0.00 | 0.02 | 0.00 | 81 | 1008.8 |
| 20260507055215 | 70 | 51 | 0.0 | 0.0 | 0.00 | 0.02 | 0.00 | 82 | 1009.0 |
| 20260507054242 | 70 | 69 | 0.0 | 0.0 | 0.00 | 0.02 | 0.00 | 81 | 1008.9 |
| 20260507053740 | 70 | 69 | 0.0 | 0.0 | 0.00 | 0.02 | 0.00 | 81 | 1008.6 |
| 20260507053503 | 70 | 76 | 0.0 | 0.0 | 0.00 | 0.02 | 0.00 | 81 | 1008.6 |
| 20260507053349 | 70 | 76 | 0.0 | 0.0 | 0.00 | 0.02 | 0.00 | 81 | 1008.6 |
| 20260507052741 | 70 | 78 | 0.0 | 0.0 | 0.00 | 0.02 | 0.00 | 81 | 1008.7 |
| 20260507052505 | 70 | 78 | 0.0 | 1.0 | 0.00 | 0.02 | 0.00 | 81 | 1008.7 |
| 20260507052353 | 70 | 78 | 0.0 | 1.0 | 0.00 | 0.02 | 0.00 | 81 | 1008.7 |
| 20260507051742 | 70 | 78 | 0.0 | 5.0 | 0.00 | 0.02 | 0.00 | 81 | 1008.6 |
| 20260507051241 | 71 | 78 | 1.0 | 5.0 | 0.00 | 0.02 | 0.00 | 81 | 1008.7 |
| 20260507050741 | 71 | 96 | 0.0 | 0.0 | 0.00 | 0.02 | 0.00 | 81 | 1008.8 |
| 20260507050507 | 71 | 96 | 0.0 | 0.0 | 0.00 | 0.02 | 0.00 | 81 | 1008.8 |
| 20260507050348 | 71 | 96 | 0.0 | 0.0 | 0.00 | 0.02 | 0.00 | 81 | 1008.8 |
| 20260507045741 | 71 | 109 | 0.0 | 0.0 | 0.00 | 0.02 | 0.02 | 81 | 1008.6 |
| 20260507045512 | 71 | 107 | 0.0 | 0.0 | 0.00 | 0.02 | 0.02 | 80 | 1008.6 |
| 20260507045349 | 71 | 107 | 0.0 | 0.0 | 0.00 | 0.02 | 0.02 | 80 | 1008.6 |
| 20260507044739 | 71 | 100 | 0.0 | 4.0 | 0.00 | 0.02 | 0.02 | 80 | 1008.7 |
| 20260507044244 | 71 | 55 | 0.0 | 4.0 | 0.00 | 0.02 | 0.02 | 80 | 1008.8 |
| 20260507043741 | 71 | 310 | 0.0 | 0.0 | 0.00 | 0.02 | 0.02 | 81 | 1008.6 |
| 20260507043242 | 71 | 248 | 0.0 | 0.0 | 0.00 | 0.02 | 0.02 | 81 | 1008.4 |
| 20260507042959 | 71 | 248 | 0.0 | 0.0 | 0.00 | 0.02 | 0.02 | 81 | 1008.5 |
| 20260507042849 | 71 | 248 | 0.0 | 0.0 | 0.00 | 0.02 | 0.02 | 81 | 1008.5 |
| 20260507042241 | 72 | 248 | 0.0 | 0.0 | 0.00 | 0.02 | 0.02 | 80 | 1008.4 |
| 20260507041741 | 72 | 247 | 0.0 | 0.0 | 0.00 | 0.02 | 0.02 | 80 | 1008.5 |
| 20260507041240 | 72 | 329 | 0.0 | 0.0 | 0.00 | 0.02 | 0.02 | 81 | 1008.6 |
| 20260507040739 | 72 | 329 | 0.0 | 0.0 | 0.00 | 0.02 | 0.02 | 80 | 1008.7 |
| 20260507040241 | 72 | 330 | 0.0 | 0.0 | 0.00 | 0.02 | 0.02 | 80 | 1008.7 |
| 20260507035735 | 72 | 147 | 0.0 | 0.0 | 0.00 | 0.02 | 0.02 | 80 | 1008.6 |
| 20260507035237 | 72 | 295 | 0.0 | 0.0 | 0.00 | 0.02 | 0.02 | 80 | 1008.7 |
| 20260507034737 | 72 | 10 | 0.0 | 0.0 | 0.00 | 0.02 | 0.02 | 80 | 1008.5 |
| 20260507034241 | 73 | 14 | 0.0 | 0.0 | 0.00 | 0.02 | 0.02 | 80 | 1008.2 |
| 20260507033959 | 73 | 285 | 0.0 | 0.0 | 0.00 | 0.02 | 0.02 | 80 | 1008.3 |
| 20260507033844 | 73 | 285 | 0.0 | 0.0 | 0.00 | 0.02 | 0.02 | 80 | 1008.3 |
| 20260507033240 | 73 | 275 | 0.0 | 0.0 | 0.00 | 0.02 | 0.02 | 81 | 1008.2 |
| 20260507032739 | 73 | 24 | 0.0 | 0.0 | 0.00 | 0.02 | 0.02 | 80 | 1008.1 |
| 20260507032240 | 73 | 355 | 0.0 | 0.0 | 0.00 | 0.02 | 0.02 | 80 | 1008.0 |
| 20260507031738 | 73 | 45 | 0.0 | 0.0 | 0.00 | 0.02 | 0.02 | 80 | 1007.8 |
| 20260507031240 | 73 | 295 | 0.0 | 0.0 | 0.00 | 0.02 | 0.02 | 80 | 1007.8 |
| 20260507030955 | 74 | 314 | 0.0 | 0.0 | 0.00 | 0.02 | 0.02 | 80 | 1007.6 |
| 20260507030841 | 74 | 314 | 0.0 | 0.0 | 0.00 | 0.02 | 0.02 | 80 | 1007.6 |
| 20260507030240 | 74 | 330 | 0.0 | 0.0 | 0.00 | 0.02 | 0.02 | 80 | 1007.4 |
| 20260507025739 | 74 | 333 | 0.0 | 0.0 | 0.00 | 0.02 | 0.02 | 80 | 1007.5 |
| 20260507025238 | 74 | 82 | 0.0 | 2.0 | 0.00 | 0.02 | 0.02 | 80 | 1007.4 |
| 20260507024955 | 74 | 83 | 0.0 | 2.0 | 0.00 | 0.02 | 0.02 | 79 | 1007.3 |
| 20260507024846 | 74 | 83 | 0.0 | 2.0 | 0.00 | 0.02 | 0.02 | 79 | 1007.3 |
| 20260507024238 | 74 | 85 | 0.0 | 0.0 | 0.00 | 0.02 | 0.02 | 80 | 1007.2 |
| 20260507023741 | 75 | 296 | 0.0 | 0.0 | 0.00 | 0.02 | 0.02 | 80 | 1007.1 |
| 20260507023237 | 75 | 97 | 0.0 | 2.0 | 0.00 | 0.02 | 0.02 | 81 | 1006.9 |
| 20260507022737 | 75 | 303 | 0.0 | 2.0 | 0.00 | 0.02 | 0.02 | 82 | 1006.7 |
| 20260507022239 | 75 | 89 | 0.0 | 0.0 | 0.00 | 0.02 | 0.02 | 82 | 1006.7 |
| 20260507021738 | 75 | 89 | 0.0 | 0.0 | 0.00 | 0.02 | 0.02 | 82 | 1006.6 |
| 20260507021238 | 75 | 96 | 0.0 | 0.0 | 0.00 | 0.02 | 0.02 | 82 | 1006.5 |
| 20260507020957 | 75 | 96 | 0.0 | 0.0 | 0.00 | 0.02 | 0.02 | 82 | 1006.4 |
| 20260507020842 | 75 | 96 | 0.0 | 0.0 | 0.00 | 0.02 | 0.02 | 82 | 1006.4 |
| 20260507020238 | 75 | 96 | 0.0 | 0.0 | 0.00 | 0.02 | 0.02 | 83 | 1006.3 |
| 20260507015738 | 76 | 96 | 0.0 | 0.0 | 0.00 | 0.02 | 0.02 | 83 | 1006.3 |
| 20260507015242 | 76 | 97 | 0.0 | 0.0 | 0.00 | 0.02 | 0.02 | 82 | 1006.1 |
| 20260507014736 | 76 | 238 | 0.0 | 0.0 | 0.00 | 0.02 | 0.02 | 82 | 1006.1 |
| 20260507014241 | 76 | 357 | 0.0 | 0.0 | 0.00 | 0.02 | 0.02 | 82 | 1006.0 |
| 20260507013735 | 76 | 357 | 0.0 | 1.0 | 0.00 | 0.02 | 0.02 | 82 | 1006.0 |
| 20260507013240 | 76 | 354 | 0.0 | 1.0 | 0.00 | 0.02 | 0.02 | 81 | 1005.8 |
| 20260507012737 | 77 | 180 | 0.0 | 0.0 | 0.00 | 0.02 | 0.02 | 81 | 1005.8 |
| 20260507012237 | 77 | 348 | 0.0 | 0.0 | 0.00 | 0.02 | 0.02 | 81 | 1005.6 |
| 20260507011735 | 77 | 337 | 0.0 | 0.0 | 0.00 | 0.02 | 0.02 | 80 | 1005.6 |
| 20260507011501 | 78 | 327 | 0.0 | 0.0 | 0.00 | 0.02 | 0.02 | 80 | 1005.5 |
| 20260507011243 | 78 | 327 | 0.0 | 0.0 | 0.00 | 0.02 | 0.02 | 80 | 1005.5 |
| 20260507010735 | 78 | 306 | 0.0 | 0.0 | 0.00 | 0.02 | 0.02 | 80 | 1005.3 |
| 20260507010237 | 78 | 324 | 0.0 | 0.0 | 0.00 | 0.02 | 0.02 | 80 | 1005.3 |
| 20260507005736 | 79 | 217 | 0.0 | 1.0 | 0.00 | 0.02 | 0.02 | 79 | 1005.3 |
| 20260507005237 | 80 | 20 | 0.0 | 1.0 | 0.00 | 0.02 | 0.02 | 78 | 1005.2 |
| 20260507004735 | 80 | 312 | 0.0 | 0.0 | 0.00 | 0.02 | 0.02 | 78 | 1005.1 |
| 20260507004236 | 81 | 17 | 0.0 | 0.0 | 0.00 | 0.02 | 0.02 | 78 | 1004.9 |
| 20260507003733 | 81 | 303 | 0.0 | 0.0 | 0.00 | 0.02 | 0.02 | 77 | 1004.8 |
| 20260507003458 | 82 | 309 | 0.0 | 0.0 | 0.00 | 0.02 | 0.02 | 78 | 1004.7 |
| 20260507003342 | 82 | 309 | 0.0 | 0.0 | 0.00 | 0.02 | 0.02 | 78 | 1004.7 |
| 20260507002734 | 83 | 309 | 0.0 | 0.0 | 0.00 | 0.02 | 0.02 | 81 | 1004.6 |
| 20260507002456 | 83 | 65 | 0.0 | 0.0 | 0.00 | 0.02 | 0.02 | 84 | 1004.4 |
| 20260507002342 | 83 | 65 | 0.0 | 0.0 | 0.00 | 0.02 | 0.02 | 84 | 1004.4 |
| 20260507001955 | 83 | 65 | 0.0 | 0.0 | 0.00 | 0.02 | 0.02 | 84 | 1004.2 |
| 20260507001840 | 83 | 65 | 0.0 | 0.0 | 0.00 | 0.02 | 0.02 | 84 | 1004.2 |
| 20260507001234 | 84 | 65 | 0.0 | 0.0 | 0.00 | 0.02 | 0.02 | 84 | 1004.1 |
| 20260507000731 | 84 | 65 | 0.0 | 0.0 | 0.00 | 0.02 | 0.02 | 84 | 1004.2 |
| 20260507000234 | 84 | 65 | 0.0 | 0.0 | 0.00 | 0.02 | 0.02 | 84 | 1004.1 |
| 20260506235731 | 84 | 65 | 0.0 | 0.0 | 0.00 | 0.02 | 0.02 | 84 | 1004.1 |
| 20260506235509 | 84 | 65 | 0.0 | 0.0 | 0.00 | 0.02 | 0.02 | 84 | 1004.1 |
| 20260506235343 | 84 | 65 | 0.0 | 0.0 | 0.00 | 0.02 | 0.02 | 84 | 1004.1 |
| 20260506234733 | 84 | 65 | 0.0 | 0.0 | 0.00 | 0.02 | 0.02 | 84 | 1004.1 |
| 20260506234236 | 84 | 65 | 0.0 | 0.0 | 0.00 | 0.02 | 0.02 | 84 | 1004.2 |
| 20260506233956 | 84 | 65 | 0.0 | 0.0 | 0.00 | 0.02 | 0.02 | 84 | 1004.1 |
| 20260506233840 | 84 | 65 | 0.0 | 0.0 | 0.00 | 0.02 | 0.02 | 84 | 1004.1 |
| 20260506233236 | 84 | 65 | 0.0 | 0.0 | 0.00 | 0.02 | 0.02 | 84 | 1004.0 |
| 20260506232957 | 84 | 65 | 0.0 | 0.0 | 0.00 | 0.02 | 0.02 | 84 | 1003.9 |
| 20260506232839 | 84 | 65 | 0.0 | 0.0 | 0.00 | 0.02 | 0.02 | 84 | 1003.9 |
| 20260506232235 | 84 | 65 | 0.0 | 0.0 | 0.00 | 0.02 | 0.02 | 84 | 1003.9 |
| 20260506231725 | 84 | 65 | 0.0 | 0.0 | 0.00 | 0.02 | 0.02 | 84 | 1004.0 |
| 20260506231245 | 84 | 65 | 0.0 | 0.0 | 0.00 | 0.02 | 0.02 | 84 | 1003.9 |
| 20260506230735 | 85 | 65 | 0.0 | 0.0 | 0.00 | 0.02 | 0.02 | 84 | 1003.9 |
| 20260506230234 | 85 | 65 | 0.0 | 0.0 | 0.00 | 0.02 | 0.02 | 84 | 1003.9 |
| 20260506225732 | 85 | 65 | 0.0 | 0.0 | 0.00 | 0.02 | 0.02 | 84 | 1003.9 |
| 20260506225456 | 85 | 65 | 0.0 | 0.0 | 0.00 | 0.02 | 0.02 | 84 | 1004.0 |
| 20260506225338 | 85 | 65 | 0.0 | 0.0 | 0.00 | 0.02 | 0.02 | 84 | 1004.0 |
| 20260506224730 | 85 | 65 | 0.0 | 0.0 | 0.00 | 0.02 | 0.02 | 84 | 1003.8 |
| 20260506224234 | 85 | 220 | 0.0 | 0.0 | 0.00 | 0.02 | 0.02 | 84 | 1003.9 |
| 20260506223743 | 85 | 220 | 0.0 | 0.0 | 0.00 | 0.02 | 0.02 | 83 | 1003.9 |